Dewpoint
58 58 58 59 60 61 59 58 57 58 58 60 63 63 64 63 63 63 63 62 62 62 61 61 61 61 61 62 62 62 61 57 57 55 53 52 58 64 63 65 62 63 60 54 49 35 33 34 36 35 38 39 40 45 43 39 37 37 32 31 27 28 26 30 26 24 27 20 19 23 24 30 25 24 28 41 44 46 48 48 49 52 52 52 53 56 60 60
57 58 58 59 59 60 60 60 60 60 59 60 63 64 64 63 63 63 63 62 62 62 61 62 62 62 62 62 62 61 57 56 55 54 52 62 63 64 65 65 64 63 59 53 52 39 34 31 31 35 33 34 43 45 44 42 39 36 31 31 28 30 29 31 27 25 21 22 20 23 24 25 26 27 29 33 37 45 46 46 49 51 52 55 56 58 59 60
57 57 58 58 59 58 58 58 60 61 62 62 63 63 63 63 62 62 62 62 62 62 61 62 62 62 62 62 62 60 56 54 54 52 52 63 65 64 63 63 63 62 54 52 51 50 39 33 35 37 38 38 39 42 44 40 37 37 30 27 30 32 30 30 26 24 22 22 22 23 24 23 23 29 29 31 36 43 45 44 45 49 50 53 55 58 59 60
57 58 58 59 59 58 57 57 57 58 60 62 62 62 63 63 62 62 62 62 62 62 62 62 62 62 62 61 60 57 54 53 50 52 54 63 65 64 63 63 64 58 53 53 54 49 45 39 40 39 41 41 44 44 45 42 37 37 31 29 30 29 27 25 30 25 22 23 22 24 23 22 22 28 31 32 39 41 43 43 44 47 50 54 57 58 58 60
56 57 58 58 58 58 57 56 56 56 58 58 61 62 62 63 62 62 62 62 62 61 62 62 62 62 61 61 59 54 50 46 46 53 56 64 64 63 63 63 61 55 54 55 57 55 48 42 42 46 45 44 42 44 43 40 36 33 30 34 32 27 25 24 23 24 22 23 23 23 23 22 23 25 29 36 30 30 37 40 44 47 52 55 57 58 58 59
56 57 57 57 58 58 57 56 56 57 57 57 57 60 62 63 62 62 62 61 61 61 62 62 62 61 61 60 56 52 47 40 50 51 64 65 63 63 63 62 60 55 55 56 55 55 44 47 44 42 47 46 41 42 48 39 39 38 34 26 27 25 23 23 22 23 24 23 23 23 24 23 23 23 29 35 28 27 25 35 40 49 54 57 58 58 58 59
55 56 57 57 57 57 58 57 57 57 57 58 58 59 61 62 62 62 61 61 61 61 62 62 61 61 60 59 54 49 46 46 48 52 64 64 63 63 62 61 59 54 54 54 54 53 50 45 44 43 43 46 47 37 33 34 33 34 32 25 24 24 23 24 23 23 22 23 22 23 23 22 22 22 25 33 32 25 24 27 39 51 55 57 57 58 58 58
56 55 56 57 57 57 58 58 58 59 60 61 62 62 61 62 62 62 61 61 61 61 62 61 61 60 59 54 51 49 47 45 50 57 63 63 62 60 59 54 54 54 54 53 53 52 48 44 42 43 41 41 44 37 38 32 28 28 25 23 22 23 23 23 22 21 21 22 23 24 22 22 22 22 29 29 32 32 28 50 52 55 56 57 57 57 58 58
56 56 56 56 57 57 58 58 59 59 60 61 61 61 62 62 62 61 61 60 61 61 61 61 61 60 58 53 50 47 47 49 54 61 61 58 57 55 53 52 54 53 53 54 54 53 49 49 45 45 40 36 36 37 40 31 35 28 27 26 24 23 23 21 22 21 20 22 22 21 21 21 20 22 22 23 26 30 46 52 54 55 56 57 57 57 57 58
56 56 55 55 55 56 57 57 59 58 59 60 60 59 61 62 62 61 61 61 61 61 61 61 61 59 55 52 49 45 48 51 59 59 56 55 53 52 52 52 54 53 52 53 53 53 52 50 44 47 40 39 37 37 42 37 41 35 39 30 24 23 21 23 21 20 21 22 21 21 21 20 20 20 19 20 22 48 51 51 52 55 55 56 57 57 57 58
54 55 55 55 56 56 56 56 57 59 59 59 60 59 58 61 62 61 61 61 61 61 61 61 60 57 53 51 47 44 48 58 60 56 54 52 51 50 51 53 54 53 53 52 52 54 53 49 47 48 50 43 43 40 44 46 43 37 33 28 29 25 21 21 22 20 21 20 20 21 20 20 19 20 19 19 29 47 49 53 53 53 55 56 56 57 57 57
53 53 54 55 55 55 56 56 56 58 59 60 59 57 57 59 62 61 61 61 61 61 61 61 60 55 52 50 47 45 49 57 59 54 52 51 52 52 53 54 54 53 53 52 52 51 50 47 50 50 44 47 41 45 39 44 42 39 32 32 32 29 22 21 20 20 21 19 20 20 19 18 19 18 20 17 38 44 49 52 53 53 54 55 56 56 56 57
54 53 53 54 56 55 55 56 57 57 58 59 60 59 55 57 62 61 61 61 61 61 60 60 58 54 51 47 47 49 49 59 55 53 52 52 53 54 54 54 54 55 54 53 52 51 49 51 51 46 48 46 44 44 45 42 36 40 37 34 34 28 27 21 21 22 20 19 20 20 17 19 17 18 20 20 43 45 47 50 53 54 53 54 55 56 56 56
54 54 53 54 56 56 55 55 56 56 57 58 58 60 58 55 61 61 61 60 61 61 60 60 57 53 49 47 50 51 55 57 53 52 51 52 51 51 52 52 52 51 52 52 53 53 54 54 51 49 53 47 43 48 44 43 38 42 41 37 35 32 33 22 21 21 18 22 19 17 19 17 18 18 20 32 43 44 44 48 52 52 52 53 54 55 56 56
52 54 53 54 55 56 56 55 55 56 57 58 59 59 60 58 57 61 61 60 61 61 60 59 55 51 47 49 51 52 60 54 52 51 51 51 51 50 50 49 49 50 51 52 52 55 53 51 50 50 48 49 49 48 45 44 40 38 42 39 32 36 39 25 29 20 18 19 18 17 19 17 17 17 17 23 43 42 39 46 50 51 52 52 54 55 55 56
52 52 53 53 54 55 55 56 56 56 56 57 58 59 59 60 59 61 61 60 61 60 60 55 54 50 48 46 49 60 57 54 53 52 52 52 51 50 49 48 48 49 49 50 54 54 55 55 52 50 48 48 48 45 43 41 41 40 38 29 35 32 31 20 20 23 24 19 20 16 17 14 13 15 14 15 44 43 40 43 48 50 51 52 53 54 55 55
51 52 52 54 53 54 55 55 56 56 57 58 59 59 59 59 59 60 61 61 60 60 58 54 54 51 45 51 57 54 53 56 54 53 50 50 50 48 48 47 46 48 49 51 52 52 53 50 48 49 49 47 47 45 40 38 36 37 34 32 31 31 32 24 20 22 26 19 17 18 15 14 11 11 13 19 41 43 40 38 45 49 51 52 52 53 54 54
51 51 52 53 53 54 55 55 56 56 57 58 58 58 59 59 59 60 60 60 60 58 56 57 54 50 47 50 47 51 56 54 53 51 49 49 49 48 47 45 46 47 47 47 50 49 51 47 49 46 45 45 45 44 40 36 37 36 32 29 29 25 21 22 19 18 20 19 17 17 16 16 16 16 15 17 24 41 40 37 39 46 50 51 51 52 53 54
50 51 52 52 53 54 55 55 55 55 56 57 59 60 60 59 60 59 57 58 54 49 46 48 49 42 39 44 50 55 55 54 52 49 47 48 48 46 47 46 46 46 45 46 47 46 48 47 47 44 41 42 43 43 42 39 39 38 35 31 27 26 27 21 19 19 19 17 16 17 16 16 16 16 16 17 21 33 39 33 31 40 46 49 50 51 52 53
51 51 51 52 53 53 54 55 55 54 54 56 56 55 53 49 51 50 55 55 51 48 48 50 50 48 46 47 52 54 55 53 49 48 47 47 46 46 46 46 46 48 47 44 45 46 46 43 40 41 43 43 43 43 38 30 34 33 35 32 29 25 23 21 20 20 22 18 16 16 17 16 16 16 16 17 20 24 26 28 31 32 39 44 46 48 50 51
50 51 51 52 53 53 53 54 54 54 54 54 54 50 44 43 43 44 46 49 50 49 49 50 50 47 46 50 53 53 50 51 51 47 46 47 46 46 45 46 45 44 46 45 44 46 46 42 41 43 44 43 43 41 32 32 31 29 30 30 31 26 24 25 21 21 21 19 18 17 16 21 17 16 16 19 19 19 22 25 27 29 30 36 41 42 44 47
50 50 51 51 52 53 53 53 53 54 54 54 52 48 45 46 50 52 50 44 47 48 50 50 48 47 50 52 53 53 51 47 48 45 46 45 46 45 43 45 45 42 43 44 43 42 41 41 43 43 44 43 42 42 38 34 36 37 36 35 29 28 25 22 22 22 21 19 17 17 16 16 16 16 16 18 18 18 20 22 23 26 26 25 30 36 39 39
50 50 50 51 51 52 53 53 53 54 53 51 49 44 44 48 54 54 51 47 44 47 48 47 46 48 50 52 53 50 47 46 44 45 43 45 45 43 43 43 43 41 41 43 41 40 37 41 42 43 42 41 41 42 42 40 39 38 35 34 30 26 24 27 23 22 19 21 17 19 15 16 16 16 16 16 17 17 20 20 22 23 23 22 23 27 33 35
50 50 50 51 51 51 53 52 53 53 51 51 50 46 48 54 54 53 50 43 41 44 45 46 48 48 48 48 50 49 46 45 45 44 44 44 42 42 43 43 40 40 40 42 41 40 39 41 42 42 42 41 40 40 41 41 39 38 36 35 33 30 24 21 18 20 19 18 21 16 19 17 16 15 16 16 16 17 17 21 21 23 25 24 26 25 24 26
50 50 50 50 51 52 52 51 50 50 51 50 50 52 54 54 54 53 48 42 41 41 47 46 47 47 49 50 49 48 46 45 45 45 42 43 39 41 40 40 41 40 40 41 40 37 36 38 40 42 41 40 39 38 39 40 39 39 37 35 33 27 22 19 20 21 21 21 22 20 17 16 18 17 16 16 16 15 15 16 16 18 21 23 22 22 23 27
49 50 50 50 50 51 51 48 48 51 49 47 49 52 54 54 55 53 48 35 32 38 43 39 49 44 50 47 47 46 45 41 43 43 41 42 44 41 40 38 39 39 39 39 40 38 37 38 40 40 40 40 39 38 39 39 38 37 37 36 31 28 26 24 21 23 22 22 23 18 17 16 21 18 17 16 16 15 15 17 16 16 17 19 22 23 22 22
49 49 50 50 50 51 48 44 51 50 46 46 50 54 54 54 54 51 43 32 30 38 36 44 44 44 48 46 45 45 38 37 43 42 39 43 37 37 40 37 36 36 39 37 38 37 37 38 38 38 39 39 38 38 38 38 37 36 33 34 31 29 28 28 24 25 23 28 24 20 19 16 17 16 18 16 14 15 15 15 16 16 16 17 18 20 22 22
49 49 50 50 50 51 47 47 48 46 45 49 52 54 54 54 53 51 41 26 23 41 36 41 43 50 47 46 46 44 42 42 39 40 42 41 38 35 37 35 37 37 37 38 34 35 37 37 38 37 38 38 38 39 38 38 37 34 32 34 31 30 26 27 26 25 26 23 21 22 23 14 15 16 17 12 12 13 14 14 15 15 16 16 18 18 19 21
48 48 49 50 50 51 50 47 48 44 48 53 54 54 54 54 51 44 33 25 36 36 47 39 49 47 45 45 42 41 41 43 38 39 40 40 42 35 35 34 37 38 37 37 36 32 33 37 38 38 38 37 36 38 37 37 36 34 31 32 30 31 31 27 26 23 25 22 21 22 20 16 16 22 16 14 11 12 13 14 14 15 15 16 17 18 19 19
48 48 49 49 49 49 49 48 46 49 53 54 54 54 54 51 46 35 27 22 38 30 41 41 42 39 43 40 40 40 40 39 40 38 37 34 34 36 35 38 39 37 36 34 32 31 33 38 39 38 37 37 37 37 37 36 35 33 32 35 36 35 32 31 28 24 22 20 21 23 20 15 15 18 15 16 16 12 10 9 10 12 16 16 17 17 21 20
48 48 49 49 48 48 48 45 45 48 53 54 54 53 51 46 37 31 25 30 36 36 42 40 38 43 40 37 35 39 36 38 37 35 34 34 31 35 35 34 36 34 32 31 29 30 32 34 35 34 35 35 36 36 37 37 35 36 34 34 36 33 33 32 28 25 22 21 22 24 21 16 15 16 18 15 13 11 12 10 8 9 9 13 15 16 18 18
47 47 48 48 48 49 45 43 45 48 52 53 52 48 44 33 35 28 25 40 30 33 34 36 40 40 39 39 37 37 35 37 36 34 33 31 31 32 32 31 33 30 31 31 29 28 27 31 32 32 35 36 34 35 35 34 37 36 36 35 31 26 27 24 23 21 21 21 17 16 16 14 15 16 13 12 11 12 11 12 11 9 8 10 12 15 18 22
46 47 48 48 48 47 46 45 48 48 52 53 49 47 37 31 24 32 30 33 29 37 34 40 39 39 39 37 36 36 37 35 35 33 33 32 31 32 32 33 33 30 27 29 28 27 27 29 32 31 32 35 36 34 33 32 35 35 33 31 29 23 22 21 22 17 18 22 17 14 16 14 17 14 16 16 15 13 11 10 13 13 12 13 15 18 22 27
47 47 45 46 47 47 47 47 49 50 51 51 46 40 36 29 27 36 32 32 34 38 39 38 39 39 38 35 35 35 34 36 33 32 32 30 30 30 30 33 31 31 31 30 28 28 22 22 28 31 29 33 36 35 35 37 34 35 34 32 28 25 21 20 19 20 20 22 15 16 14 16 16 17 19 17 16 16 16 13 14 16 16 16 18 25 29 32
46 46 45 45 46 47 48 47 49 50 50 47 41 36 28 27 33 30 31 32 35 38 37 41 38 36 35 35 36 35 36 33 33 31 31 30 28 29 28 30 32 31 30 28 27 24 25 25 28 32 30 34 35 35 35 35 34 34 33 31 28 26 26 21 20 17 17 14 9 10 17 19 16 18 16 16 17 16 17 19 24 23 26 31 33 32 32 34
45 44 45 45 45 46 48 48 50 50 47 43 36 31 29 32 29 33 32 37 37 35 37 39 37 34 33 34 35 34 35 33 33 31 31 30 30 29 29 30 31 31 30 26 28 24 25 24 29 29 31 33 34 33 34 35 29 32 29 28 28 30 26 22 20 15 14 16 13 11 13 16 15 14 14 15 13 13 14 16 20 23 25 32 32 32 33 36
43 43 42 44 45 47 47 48 50 49 46 40 34 29 33 33 37 36 38 36 37 38 37 31 32 31 31 30 33 33 33 35 33 32 29 31 30 30 29 30 32 31 30 29 27 27 25 24 28 28 28 31 31 34 35 33 35 31 28 30 28 29 28 21 19 18 12 15 15 12 13 13 10 16 17 11 11 11 11 12 14 19 27 31 31 31 34 36
42 42 42 43 45 46 47 48 49 47 43 36 30 34 37 34 38 37 38 38 38 38 36 34 34 33 30 31 31 32 33 31 32 33 30 30 29 31 29 29 31 30 31 29 28 27 29 23 26 27 28 30 31 32 32 34 33 31 31 31 26 23 23 21 19 15 10 11 12 9 13 10 11 14 11 9 9 9 9 11 11 13 18 27 29 31 36 35
43 41 37 41 45 46 48 49 49 45 38 32 30 31 34 35 39 37 38 39 38 37 36 36 33 33 33 32 33 33 33 30 32 32 29 30 28 30 29 29 30 30 30 29 27 27 27 22 25 27 28 29 29 30 28 30 31 32 29 26 30 25 24 22 22 19 18 14 7 15 8 10 15 13 11 6 7 10 9 9 10 11 13 18 26 33 36 37
40 37 36 42 45 47 48 48 44 41 36 29 28 32 37 34 37 39 41 38 37 38 35 35 35 34 34 33 33 31 32 31 32 32 31 31 29 28 29 29 30 30 29 29 28 31 26 26 19 26 28 28 26 28 28 29 28 27 26 25 24 26 28 26 21 22 18 10 8 7 6 14 16 16 11 9 7 7 7 10 14 15 18 24 30 33 36 37
43 38 37 44 45 48 49 45 38 35 33 33 36 35 35 35 36 38 39 38 39 37 38 36 35 33 33 32 32 33 31 32 32 31 30 30 28 27 29 28 31 29 29 29 27 28 24 24 24 26 26 25 26 28 30 30 30 29 27 25 24 24 23 21 21 15 15 13 12 3 11 16 19 17 12 9 8 7 14 14 14 15 19 25 30 34 35 37
40 33 37 45 47 48 44 34 36 39 35 31 32 35 35 38 36 37 39 38 38 36 36 37 36 34 34 32 32 32 31 31 31 31 29 29 30 26 29 29 30 30 28 27 26 27 28 27 26 22 26 27 26 29 31 29 30 29 28 27 27 26 26 22 20 22 14 13 14 14 3 12 15 14 15 12 11 15 16 20 18 18 19 20 28 33 34 36
38 36 46 46 48 45 41 35 38 36 33 35 38 37 38 36 36 37 37 38 33 32 36 35 32 32 33 33 32 32 32 30 31 30 30 27 30 25 30 28 30 29 30 27 28 27 33 24 25 24 25 27 28 30 30 30 29 28 28 29 26 23 26 25 24 25 21 17 15 11 8 16 19 22 23 21 21 22 24 23 21 19 20 21 25 31 34 34
37 40 42 47 47 44 38 30 31 32 34 37 37 36 37 36 36 36 37 36 32 33 34 33 33 33 32 33 31 30 32 28 30 27 26 26 29 27 28 28 29 29 28 27 26 32 22 23 25 18 20 23 26 26 26 27 28 26 25 27 27 28 26 27 27 24 21 22 19 12 13 14 18 22 20 20 18 17 16 17 23 22 21 24 26 31 34 34
42 44 44 44 47 41 35 34 34 33 34 35 34 33 34 35 36 37 36 35 32 34 34 32 33 33 32 33 32 31 32 30 29 29 26 26 28 27 27 29 30 28 31 32 34 32 27 26 26 22 21 20 20 22 23 24 26 27 27 27 27 26 25 21 21 19 20 23 20 17 15 16 16 15 9 9 14 14 14 16 19 23 22 22 27 34 36 36
39 30 38 40 44 42 37 38 36 36 35 34 33 33 34 34 36 38 37 35 32 33 31 32 33 33 32 31 29 29 30 28 30 27 26 26 25 26 29 28 29 30 33 34 34 29 26 28 26 25 24 23 24 26 28 28 25 24 25 26 26 28 25 27 27 22 21 21 19 20 20 17 15 11 11 9 14 12 15 17 18 23 23 26 31 35 36 37
40 36 35 31 38 39 36 38 38 38 35 36 31 33 32 33 34 35 39 30 33 31 31 31 32 31 31 30 29 29 28 26 27 28 26 26 26 26 28 30 28 32 35 33 33 28 27 25 26 26 26 25 26 25 27 27 25 26 26 25 27 27 27 25 24 23 26 23 20 22 20 18 17 15 13 11 12 15 16 16 16 16 22 30 33 35 37 36
34 37 38 40 33 30 34 36 39 37 37 37 34 34 32 32 33 33 35 34 33 34 31 29 32 32 31 30 29 28 27 24 27 27 27 26 26 27 27 30 29 32 32 30 32 27 25 24 26 26 25 25 25 26 28 27 27 27 26 26 26 27 26 25 25 26 24 23 22 23 20 18 16 14 14 13 14 12 13 15 16 17 28 34 35 35 36 37
38 39 40 37 32 36 36 37 39 37 36 37 35 34 32 32 32 33 33 31 31 30 31 28 30 32 31 31 29 28 27 24 23 26 26 27 26 26 26 27 29 32 29 28 29 27 24 20 24 25 24 24 24 26 27 26 26 26 27 27 26 26 25 25 25 26 26 24 24 24 22 21 20 17 15 15 22 21 20 23 28 30 32 35 35 35 36 36
36 36 37 37 38 34 36 38 38 38 36 37 32 33 32 32 31 32 32 29 27 28 31 29 30 31 32 31 30 28 27 27 26 25 27 27 27 26 25 26 25 28 27 27 28 26 24 17 27 23 20 20 24 25 25 25 26 25 26 27 26 26 26 26 25 26 26 25 25 25 24 23 23 21 20 21 23 26 23 19 17 21 31 35 35 35 35 36
35 37 37 34 34 35 36 37 37 37 35 37 34 32 32 32 31 32 31 31 29 28 29 29 30 31 32 31 30 29 29 28 28 28 28 28 25 27 25 23 26 27 27 28 26 25 24 18 23 22 20 15 23 23 24 24 23 23 24 26 26 26 25 25 25 26 24 24 24 24 23 22 22 22 23 23 21 21 21 21 21 23 26 33 34 33 34 35
36 37 36 32 33 35 34 37 38 37 33 36 34 32 32 31 32 32 29 31 32 31 30 30 30 30 31 31 30 30 31 30 30 30 29 28 28 28 29 27 27 26 27 26 26 26 23 22 19 19 20 15 20 23 23 21 19 20 22 24 26 26 26 26 26 27 26 25 24 23 22 21 21 23 21 20 20 20 21 21 21 23 27 31 32 32 32 34